Regional Weather Roundup
Issued by NWS

Home | Current Version | Previous Version | Text Only | Print | Product List | Glossary Off
Versions: 1 2 3 4 5 6 7 8 9 10 11 12 13 14 15 16 17 18 19 20 21 22 23 24 25 26 27 28 29 30 31 32 33 34 35 36 37 38 39 40 41 42 43 44 45 46 47 48 49 50

000
ASUS43 KDTX 190701
RWRMI
MICHIGAN HOURLY REGIONAL WEATHER ROUNDUP
NATIONAL WEATHER SERVICE DETROIT/PONTIAC MI
300 AM EDT FRI SEP 19 2014

NOTE: "FAIR" INDICATES FEW OR NO CLOUDS BELOW 12,000 FEET WITH NO
SIGNIFICANT WEATHER AND/OR OBSTRUCTION TO VISIBILITY.

MIZ047>049-052>055-059>063-066>070-074>076-081>083-190800-
SOUTHEAST LOWER MICHIGAN

CITY           SKY/WX    TMP DP  RH WIND       PRES   REMARKS
ADRIAN         PTCLDY    49  46  90 NE3       30.25R
ALMA           CLEAR     42  41  97 NE3       30.26S
ANN ARBOR      CLEAR     42  40  92 NE3       30.24S
BAD AXE        CLEAR     33  33 100 CALM      30.27S
CARO           CLEAR     35  35  99 CALM      30.25S FOG
DETROIT CITY   CLEAR     48  42  80 N3        30.25S
DETROIT        PTCLDY    47  43  86 N7        30.25R
FLINT          CLEAR     41  39  93 CALM      30.26S
GROSSE ILE     CLEAR     48  45  87 CALM      30.23S
HILLSDALE      PTCLDY    49  49 100 CALM      30.23S FOG
HOWELL         CLEAR     43  42  97 NE3       30.24S

CITY           SKY/WX    TMP DP  RH WIND       PRES   REMARKS
JACKSON        PTCLDY    47  46  97 CALM      30.23S FOG
LAMBERTVILLE   PTCLDY    50  46  87 N3        30.24R
LANSING        CLEAR     46  43  89 E6        30.24S
LAPEER         PTSUNNY   35  35  99 CALM      30.25S FOG
MASON          CLEAR     45  43  94 CALM      30.24S
MONROE         MOCLDY    50  46  87 N3        30.22S
MT. CLEMENS    CLEAR     43  43 100 W3        30.23R
PONTIAC        CLEAR     43  39  86 CALM      30.23S
PORT HOPE        N/A     51  40  65 E9        30.25R
PORT HURON     CLEAR     36  36 100 CALM      30.25R FOG
TRI CITIES     CLEAR     40  37  89 CALM      30.27R
TROY           CLEAR     46  41  82 CALM      30.26S
SAGINAW HB     CLEAR     39  39 100 CALM      30.26S
$$
MIZ043>046-050>051-056>058-064>065-071>073-077>080-190800-
SOUTHWEST LOWER MICHIGAN

CITY           SKY/WX    TMP DP  RH WIND       PRES   REMARKS
BATTLE CREEK   CLEAR     51  48  89 E5        30.22S
BENTON HARBOR  CLEAR     49  48  97 E5        30.18F
BIG RAPIDS     CLEAR     43  43 100 E3        30.23F
COLDWATER      CLEAR     51  49  95 E3        30.21S FOG
FREMONT        FAIR      47  45  91 E6        30.21F
HOLLAND        CLEAR     51  48  89 E6        30.21S
GRAND RAPIDS   CLEAR     47  45  93 E7        30.22F
IONIA          FAIR      45  44  98 E5        30.23S FOG
KALAMAZOO      CLEAR     49  47  93 CALM      30.21F FOG
LUDINGTON      CLEAR     49  47  93 SE6       30.20S
MARSHALL       PTCLDY    46  46  99 E3        30.21F FOG
MOUNT PLEASANT CLEAR     40  39  97 CALM      30.25F FOG
MUSKEGON       CLEAR     50  46  86 E9        30.21S
SOUTH HAVEN    CLEAR     52  51  97 SE5       30.19S
$$
MIZ016>042-190800-
NORTHERN LOWER MICHIGAN

CITY           SKY/WX    TMP DP  RH WIND       PRES   REMARKS
ALPENA         MOCLDY    35  33  92 CALM      30.26F
BEAVER ISLAND  CLOUDY    51  49  92 SE7       30.18S
CADILLAC       PTCLDY    44  42  91 SE7       30.22S
CHARLEVOIX     CLEAR     46  42  87 SE8       30.22S
FRANKFORT      CLEAR     51  46  82 SE7       30.19S
GAYLORD        PTCLDY    42  38  85 S10       30.22S
GRAYLING       CLOUDY    41  40  96 CALM      30.24S
HARBOR SPRINGS PTCLDY    43  39  86 NE7       30.21S
HOUGHTON LAKE  CLOUDY    46  41  82 SE8       30.24F
MANISTEE       CLEAR     48  45  87 SE6       30.20F
OSCODA         PTCLDY    33  32  98 CALM      30.26F
PELLSTON       CLEAR     42  39  89 SE8       30.22S
ROGERS CITY    CLEAR     41  39  93 SE5       30.26F
TRAVERSE CITY  MOCLDY    50  45  83 VRB5      30.19S
$$
MIZ007>008-015-190800-
EASTERN UPPER MICHIGAN

CITY           SKY/WX    TMP DP  RH WIND       PRES   REMARKS
KINROSS        CLEAR     39  39 100 SE8       30.21S WCI  34
MACKINAC ISLAN CLEAR     46  40  78 SE13G23   30.21F
NEWBERRY       CLOUDY    40  40  97 SE5       30.17S
S. S. MARIE    CLEAR     40  37  89 E3        30.21F
$$
MIZ004>006-011>014-085-190800-
CENTRAL UPPER MICHIGAN

CITY           SKY/WX    TMP DP  RH WIND       PRES   REMARKS
MANISTIQUE     CLOUDY    52  47  83 S7        30.15F
ESCANABA       CLEAR     41  39  93 S3        30.13F
MENOMINEE      CLEAR     45  43  93 CALM      30.14F
SAWYER-GWINN   CLEAR     43  40  91 S9        30.12S
$$
MIZ001>003-009>011-084-190800-
WESTERN UPPER MICHIGAN

CITY           SKY/WX    TMP DP  RH WIND       PRES   REMARKS
IRON MOUNTAIN  CLOUDY    45  43  93 SE6       30.12F
HOUGHTON       PTCLDY    47  43  86 S8        30.04S
COPPER HARBOR    N/A     51  47  86 SW12G18   30.04R
IRONWOOD       PTCLDY    52  48  87 S14       30.01F
$$

ABBREVIATIONS USED IN REMARKS
   TC - TEMPERATURE IN CELSIUS
  WCI - WIND CHILL INDEX
   HX - HEAT INDEX
  VSB - VISIBILITY



USA.gov is the U.S. government's official web portal to all federal, state and local government web resources and services.